Time,TemperatureF,DewpointF,PressureIn,WindDirection,WindDirectionDegrees,WindSpeedMPH,WindSpeedGustMPH,Humidity,HourlyPrecipIn,Conditions,Clouds,dailyrainin,SoftwareType,DateUTC
2013-07-02 00:08:00,74.2,61.0,29.86,WNW,285,0.0,1.0,63,0.00,,,0.00,weatherlink.com 1.10,2013-07-02 07:08:00,
2013-07-02 00:24:00,73.5,60.0,29.86,WNW,285,0.0,0.0,63,0.00,,,0.00,weatherlink.com 1.10,2013-07-02 07:24:00,
2013-07-02 00:39:00,72.8,60.0,29.86,WNW,285,0.0,0.0,64,0.00,,,0.00,weatherlink.com 1.10,2013-07-02 07:39:00,
2013-07-02 00:54:00,71.9,59.0,29.86,WNW,285,2.0,2.0,64,0.00,,,0.00,weatherlink.com 1.10,2013-07-02 07:54:00,
2013-07-02 01:09:00,71.7,58.0,29.86,WNW,285,2.0,4.0,62,0.00,,,0.00,weatherlink.com 1.10,2013-07-02 08:09:00,
2013-07-02 01:24:00,72.2,57.0,29.86,SSE,168,2.0,6.0,59,0.00,,,0.00,weatherlink.com 1.10,2013-07-02 08:24:00,
2013-07-02 01:39:00,72.6,57.0,29.86,South,178,1.0,6.0,59,0.00,,,0.00,weatherlink.com 1.10,2013-07-02 08:39:00,
2013-07-02 01:54:00,72.7,58.0,29.86,South,180,2.0,5.0,60,0.00,,,0.00,weatherlink.com 1.10,2013-07-02 08:54:00,
2013-07-02 02:09:00,72.7,58.0,29.86,South,169,2.0,7.0,61,0.00,,,0.00,weatherlink.com 1.10,2013-07-02 09:09:00,
2013-07-02 02:24:00,72.4,58.0,29.86,South,182,1.0,8.0,61,0.00,,,0.00,weatherlink.com 1.10,2013-07-02 09:24:00,
2013-07-02 02:39:00,71.9,57.0,29.86,South,182,2.0,8.0,60,0.00,,,0.00,weatherlink.com 1.10,2013-07-02 09:39:00,
2013-07-02 02:54:00,71.5,57.0,29.85,South,170,2.0,6.0,61,0.00,,,0.00,weatherlink.com 1.10,2013-07-02 09:54:00,
2013-07-02 03:09:00,71.2,57.0,29.85,South,172,3.0,7.0,61,0.00,,,0.00,weatherlink.com 1.10,2013-07-02 10:09:00,
2013-07-02 03:24:00,70.9,58.0,29.85,South,189,2.0,8.0,63,0.00,,,0.00,weatherlink.com 1.10,2013-07-02 10:24:00,
2013-07-02 03:39:00,70.3,58.0,29.86,South,176,7.0,10.0,66,0.00,,,0.00,weatherlink.com 1.10,2013-07-02 10:39:00,
2013-07-02 03:54:00,70.0,59.0,29.86,SSE,168,4.0,9.0,68,0.00,,,0.00,weatherlink.com 1.10,2013-07-02 10:54:00,
2013-07-02 04:09:00,69.8,59.0,29.86,South,179,2.0,8.0,69,0.00,,,0.00,weatherlink.com 1.10,2013-07-02 11:09:00,
2013-07-02 04:24:00,69.6,60.0,29.86,SSE,158,2.0,9.0,71,0.00,,,0.00,weatherlink.com 1.10,2013-07-02 11:24:00,
2013-07-02 04:39:00,69.5,61.0,29.87,South,173,5.0,7.0,73,0.00,,,0.00,weatherlink.com 1.10,2013-07-02 11:39:00,
2013-07-02 04:54:00,69.1,61.0,29.88,SSE,161,3.0,8.0,74,0.00,,,0.00,weatherlink.com 1.10,2013-07-02 11:54:00,
2013-07-02 05:09:00,68.8,60.0,29.88,South,175,5.0,11.0,73,0.00,,,0.00,weatherlink.com 1.10,2013-07-02 12:09:00,
2013-07-02 05:24:00,68.6,60.0,29.88,South,178,4.0,9.0,74,0.00,,,0.00,weatherlink.com 1.10,2013-07-02 12:24:00,
2013-07-02 05:39:00,68.6,61.0,29.87,SSW,207,2.0,9.0,76,0.00,,,0.00,weatherlink.com 1.10,2013-07-02 12:39:00,
2013-07-02 05:54:00,68.6,61.0,29.87,South,176,5.0,10.0,77,0.00,,,0.00,weatherlink.com 1.10,2013-07-02 12:54:00,
2013-07-02 06:09:00,68.5,61.0,29.87,SSW,212,3.0,8.0,77,0.00,,,0.00,weatherlink.com 1.10,2013-07-02 13:09:00,
2013-07-02 06:24:00,68.7,61.0,29.87,SSE,155,3.0,7.0,76,0.00,,,0.00,weatherlink.com 1.10,2013-07-02 13:24:00,
2013-07-02 06:39:00,69.0,60.0,29.88,South,186,4.0,7.0,74,0.00,,,0.00,weatherlink.com 1.10,2013-07-02 13:39:00,
2013-07-02 06:54:00,69.4,60.0,29.88,South,185,2.0,5.0,73,0.00,,,0.00,weatherlink.com 1.10,2013-07-02 13:54:00,
2013-07-02 07:09:00,70.1,61.0,29.88,South,185,3.0,5.0,73,0.00,,,0.00,weatherlink.com 1.10,2013-07-02 14:09:00,
2013-07-02 07:24:00,70.8,61.0,29.88,South,184,2.0,6.0,72,0.00,,,0.00,weatherlink.com 1.10,2013-07-02 14:24:00,
2013-07-02 07:39:00,71.7,61.0,29.88,South,184,2.0,4.0,69,0.00,,,0.00,weatherlink.com 1.10,2013-07-02 14:39:00,
2013-07-02 07:54:00,72.7,61.0,29.88,South,184,0.0,3.0,67,0.00,,,0.00,weatherlink.com 1.10,2013-07-02 14:54:00,
2013-07-02 08:09:00,73.6,61.0,29.89,South,184,2.0,3.0,64,0.00,,,0.00,weatherlink.com 1.10,2013-07-02 15:09:00,
2013-07-02 08:24:00,75.0,60.0,29.89,South,184,1.0,4.0,60,0.00,,,0.00,weatherlink.com 1.10,2013-07-02 15:24:00,
2013-07-02 08:39:00,76.0,60.0,29.89,South,184,3.0,4.0,58,0.00,,,0.00,weatherlink.com 1.10,2013-07-02 15:39:00,
2013-07-02 08:54:00,76.8,59.0,29.89,South,184,1.0,3.0,55,0.00,,,0.00,weatherlink.com 1.10,2013-07-02 15:54:00,
2013-07-02 09:09:00,78.3,60.0,29.89,WNW,303,4.0,6.0,53,0.00,,,0.00,weatherlink.com 1.10,2013-07-02 16:09:00,
2013-07-02 09:25:00,79.4,60.0,29.89,NW,315,3.0,6.0,51,0.00,,,0.00,weatherlink.com 1.10,2013-07-02 16:25:00,
2013-07-02 09:40:00,80.5,60.0,29.89,NNW,338,3.0,6.0,50,0.00,,,0.00,weatherlink.com 1.10,2013-07-02 16:40:00,
2013-07-02 09:55:00,82.1,61.0,29.88,NW,324,6.0,8.0,49,0.00,,,0.00,weatherlink.com 1.10,2013-07-02 16:55:00,
2013-07-02 10:10:00,83.4,61.0,29.88,North,351,4.0,7.0,47,0.00,,,0.00,weatherlink.com 1.10,2013-07-02 17:10:00,
2013-07-02 10:25:00,84.2,61.0,29.88,NW,306,3.0,7.0,45,0.00,,,0.00,weatherlink.com 1.10,2013-07-02 17:25:00,
2013-07-02 10:40:00,84.7,60.0,29.88,NW,311,4.0,5.0,44,0.00,,,0.00,weatherlink.com 1.10,2013-07-02 17:40:00,
2013-07-02 10:55:00,85.6,61.0,29.88,NW,311,1.0,6.0,43,0.00,,,0.00,weatherlink.com 1.10,2013-07-02 17:55:00,
2013-07-02 11:10:00,85.8,60.0,29.88,NW,314,3.0,7.0,42,0.00,,,0.00,weatherlink.com 1.10,2013-07-02 18:10:00,
2013-07-02 11:25:00,87.2,61.0,29.88,NW,313,1.0,7.0,42,0.00,,,0.00,weatherlink.com 1.10,2013-07-02 18:25:00,
2013-07-02 11:40:00,87.9,61.0,29.87,NW,315,2.0,6.0,40,0.00,,,0.00,weatherlink.com 1.10,2013-07-02 18:40:00,
2013-07-02 11:55:00,88.4,62.0,29.87,NW,309,3.0,6.0,41,0.00,,,0.00,weatherlink.com 1.10,2013-07-02 18:55:00,
2013-07-02 12:10:00,90.1,60.0,29.86,WNW,299,1.0,5.0,37,0.00,,,0.00,weatherlink.com 1.10,2013-07-02 19:10:00,
2013-07-02 12:25:00,91.3,61.0,29.86,NW,323,3.0,8.0,36,0.00,,,0.00,weatherlink.com 1.10,2013-07-02 19:25:00,
2013-07-02 12:40:00,91.6,61.0,29.86,North,11,1.0,9.0,36,0.00,,,0.00,weatherlink.com 1.10,2013-07-02 19:40:00,
2013-07-02 12:55:00,92.6,60.0,29.86,NNW,348,4.0,8.0,33,0.00,,,0.00,weatherlink.com 1.10,2013-07-02 19:55:00,
2013-07-02 13:10:00,93.2,59.0,29.86,North,355,3.0,8.0,32,0.00,,,0.00,weatherlink.com 1.10,2013-07-02 20:10:00,
2013-07-02 13:25:00,93.8,59.0,29.86,NW,319,0.0,7.0,31,0.00,,,0.00,weatherlink.com 1.10,2013-07-02 20:25:00,
2013-07-02 13:40:00,94.9,59.0,29.86,NW,319,3.0,6.0,30,0.00,,,0.00,weatherlink.com 1.10,2013-07-02 20:40:00,
2013-07-02 13:55:00,95.2,60.0,29.85,NW,317,4.0,7.0,31,0.00,,,0.00,weatherlink.com 1.10,2013-07-02 20:55:00,
2013-07-02 14:10:00,94.8,60.0,29.84,NNW,342,3.0,10.0,31,0.00,,,0.00,weatherlink.com 1.10,2013-07-02 21:10:00,
2013-07-02 14:25:00,95.7,57.0,29.84,WNW,288,3.0,11.0,27,0.00,,,0.00,weatherlink.com 1.10,2013-07-02 21:25:00,
2013-07-02 14:40:00,97.4,61.0,29.84,North,5,3.0,10.0,30,0.00,,,0.00,weatherlink.com 1.10,2013-07-02 21:40:00,
2013-07-02 14:55:00,97.7,55.0,29.84,NW,307,1.0,10.0,24,0.00,,,0.00,weatherlink.com 1.10,2013-07-02 21:55:00,
2013-07-02 15:10:00,97.5,55.0,29.83,SW,234,3.0,9.0,24,0.00,,,0.00,weatherlink.com 1.10,2013-07-02 22:10:00,
2013-07-02 15:25:00,97.9,57.0,29.82,NW,304,4.0,10.0,25,0.00,,,0.00,weatherlink.com 1.10,2013-07-02 22:25:00,
2013-07-02 15:40:00,97.6,57.0,29.82,North,5,4.0,12.0,26,0.00,,,0.00,weatherlink.com 1.10,2013-07-02 22:40:00,
2013-07-02 15:56:00,97.2,58.0,29.81,North,350,7.0,9.0,27,0.00,,,0.00,weatherlink.com 1.10,2013-07-02 22:56:00,
2013-07-02 16:11:00,97.6,55.0,29.80,North,355,6.0,15.0,24,0.00,,,0.00,weatherlink.com 1.10,2013-07-02 23:11:00,
2013-07-02 16:26:00,96.3,55.0,29.80,NW,314,5.0,7.0,25,0.00,,,0.00,weatherlink.com 1.10,2013-07-02 23:26:00,
2013-07-02 16:41:00,97.1,50.0,29.79,NNW,336,10.0,16.0,20,0.00,,,0.00,weatherlink.com 1.10,2013-07-02 23:41:00,
2013-07-02 16:56:00,96.9,51.0,29.79,NNE,14,6.0,15.0,21,0.00,,,0.00,weatherlink.com 1.10,2013-07-02 23:56:00,
2013-07-02 17:11:00,97.4,53.0,29.78,North,10,10.0,19.0,22,0.00,,,0.00,weatherlink.com 1.10,2013-07-03 00:11:00,
2013-07-02 17:26:00,98.0,51.0,29.77,SW,234,7.0,8.0,20,0.00,,,0.00,weatherlink.com 1.10,2013-07-03 00:26:00,
2013-07-02 17:41:00,97.4,51.0,29.78,SW,236,3.0,14.0,21,0.00,,,0.00,weatherlink.com 1.10,2013-07-03 00:41:00,
2013-07-02 17:56:00,96.8,53.0,29.79,WNW,296,7.0,18.0,23,0.00,,,0.00,weatherlink.com 1.10,2013-07-03 00:56:00,
2013-07-02 18:11:00,94.7,55.0,29.79,NW,322,7.0,13.0,26,0.00,,,0.00,weatherlink.com 1.10,2013-07-03 01:11:00,
2013-07-02 18:26:00,93.5,54.0,29.80,NNW,342,4.0,16.0,26,0.00,,,0.00,weatherlink.com 1.10,2013-07-03 01:26:00,
2013-07-02 18:41:00,92.6,53.0,29.80,NNW,330,2.0,15.0,26,0.00,,,0.00,weatherlink.com 1.10,2013-07-03 01:41:00,
2013-07-02 18:56:00,91.7,52.0,29.81,WNW,292,6.0,15.0,26,0.00,,,0.00,weatherlink.com 1.10,2013-07-03 01:56:00,
2013-07-02 19:11:00,90.8,52.0,29.81,WSW,252,13.0,13.0,27,0.00,,,0.00,weatherlink.com 1.10,2013-07-03 02:11:00,
2013-07-02 19:26:00,89.7,52.0,29.82,West,272,8.0,10.0,28,0.00,,,0.00,weatherlink.com 1.10,2013-07-03 02:26:00,
2013-07-02 19:41:00,89.2,53.0,29.82,WNW,301,3.0,8.0,29,0.00,,,0.00,weatherlink.com 1.10,2013-07-03 02:41:00,
2013-07-02 19:56:00,88.7,54.0,29.83,WNW,292,4.0,7.0,30,0.00,,,0.00,weatherlink.com 1.10,2013-07-03 02:56:00,
2013-07-02 20:11:00,87.9,55.0,29.83,NW,321,1.0,5.0,33,0.00,,,0.00,weatherlink.com 1.10,2013-07-03 03:11:00,
2013-07-02 20:26:00,87.2,57.0,29.84,NW,321,1.0,3.0,36,0.00,,,0.00,weatherlink.com 1.10,2013-07-03 03:26:00,
2013-07-02 20:41:00,86.2,58.0,29.83,NW,321,2.0,4.0,39,0.00,,,0.00,weatherlink.com 1.10,2013-07-03 03:41:00,
2013-07-02 20:56:00,85.6,59.0,29.84,NW,321,0.0,1.0,41,0.00,,,0.00,weatherlink.com 1.10,2013-07-03 03:56:00,
2013-07-02 21:11:00,84.5,60.0,29.84,NW,321,0.0,3.0,44,0.00,,,0.00,weatherlink.com 1.10,2013-07-03 04:11:00,
2013-07-02 21:26:00,83.3,60.0,29.84,NW,321,0.0,1.0,46,0.00,,,0.00,weatherlink.com 1.10,2013-07-03 04:26:00,
2013-07-02 21:41:00,82.0,60.0,29.85,NW,321,0.0,0.0,48,0.00,,,0.00,weatherlink.com 1.10,2013-07-03 04:41:00,
2013-07-02 21:56:00,81.0,60.0,29.86,NW,321,0.0,0.0,49,0.00,,,0.00,weatherlink.com 1.10,2013-07-03 04:56:00,
2013-07-02 22:11:00,79.6,60.0,29.86,NW,321,0.0,1.0,52,0.00,,,0.00,weatherlink.com 1.10,2013-07-03 05:11:00,
2013-07-02 22:26:00,78.5,60.0,29.86,NW,321,0.0,1.0,53,0.00,,,0.00,weatherlink.com 1.10,2013-07-03 05:26:00,
2013-07-02 22:41:00,77.8,59.0,29.86,NW,321,0.0,2.0,53,0.00,,,0.00,weatherlink.com 1.10,2013-07-03 05:41:00,
2013-07-02 22:56:00,77.0,60.0,29.87,NW,321,0.0,2.0,55,0.00,,,0.00,weatherlink.com 1.10,2013-07-03 05:56:00,
2013-07-02 23:11:00,76.2,59.0,29.88,NW,321,0.0,2.0,56,0.00,,,0.00,weatherlink.com 1.10,2013-07-03 06:11:00,
2013-07-02 23:26:00,75.6,59.0,29.89,NW,321,0.0,2.0,57,0.00,,,0.00,weatherlink.com 1.10,2013-07-03 06:26:00,
2013-07-02 23:41:00,75.3,59.0,29.89,NW,321,0.0,2.0,58,0.00,,,0.00,weatherlink.com 1.10,2013-07-03 06:41:00,
2013-07-02 23:56:00,74.9,59.0,29.89,NW,321,0.0,3.0,59,0.00,,,0.00,weatherlink.com 1.10,2013-07-03 06:56:00,